Regional Weather Roundup
Issued by NWS

Home | Current Version | Previous Version | Text Only | Print | Product List | Glossary Off
Versions: 1 2 3 4 5 6 7 8 9 10 11 12 13 14 15 16 17 18 19 20 21 22 23 24 25 26 27 28 29 30 31 32 33 34 35 36 37 38 39 40 41 42 43 44 45 46 47 48 49 50

172
ASUS43 KDTX 241310
RWRMI
MICHIGAN HOURLY REGIONAL WEATHER ROUNDUP
NATIONAL WEATHER SERVICE DETROIT/PONTIAC MI
800 AM EST FRI NOV 24 2017

NOTE: "FAIR" INDICATES FEW OR NO CLOUDS BELOW 12,000 FEET WITH NO
SIGNIFICANT WEATHER AND/OR OBSTRUCTION TO VISIBILITY.

MIZ047>049-052>055-059>063-066>070-074>076-081>083-241400-
SOUTHEAST LOWER MICHIGAN

CITY           SKY/WX    TMP DP  RH WIND       PRES   REMARKS
ADRIAN         CLEAR     29  24  82 SW8       29.88F WCI  21
ALMA           CLEAR     33  28  83 S8        29.75F WCI  25
ANN ARBOR      CLEAR     28  24  85 S8        29.85F WCI  20
BAD AXE        CLEAR     32  25  74 SW9       29.75F WCI  25
CARO           CLEAR     34  26  74 S8        29.76S WCI  27
DETROIT CITY   CLEAR     35  24  64 SW15      29.86F WCI  25
DETROIT        PTCLDY    31  25  78 S10       29.88F WCI  22
FLINT          CLEAR     34  24  67 S9        29.79F WCI  27
GROSSE ILE     CLEAR     35  29  78 SW10      29.87F WCI  28
HILLSDALE      CLEAR     32  23  69 S7        29.84R WCI  26
HOWELL         CLEAR     33  26  73 S8        29.81S WCI  27

CITY           SKY/WX    TMP DP  RH WIND       PRES   REMARKS
JACKSON        CLEAR     35  24  64 S8        29.83S WCI  29
LAMBERTVILLE   CLEAR     34  26  71 S7        29.89F WCI  28
LANSING        CLEAR     34  26  72 S13       29.78F WCI  25
LAPEER         FAIR      34  26  72 S8        29.79F WCI  27
MASON          CLEAR     34  25  70 S3        29.81S
MONROE         CLEAR     32  26  77 S7        29.87F WCI  26
MT. CLEMENS    PTCLDY    32  27  80 S8        29.83F WCI  25
PONTIAC        MOCLDY    31  25  78 S8        29.81F WCI  23
PORT HOPE        N/A     36  25  64 VRB5      29.73F WCI  32
PORT HURON     CLEAR     34  25  69 S7        29.83F WCI  28
TRI CITIES     CLEAR     34  27  75 SW10      29.75F WCI  26
MIDLAND        FAIR      33  27  77 S7        29.73F WCI  27
TROY           CLEAR     34  25  68 S9G17     29.86F WCI  27
SAGINAW HB     CLEAR     34  27  75 S10       29.76S WCI  26
$$
MIZ043>046-050>051-056>058-064>065-071>073-077>080-241400-
SOUTHWEST LOWER MICHIGAN

CITY           SKY/WX    TMP DP  RH WIND       PRES   REMARKS
BATTLE CREEK   CLOUDY    33  25  72 S12       29.81F WCI  24
BENTON HARBOR  CLEAR     34  25  69 S8        29.79F WCI  27
BIG RAPIDS     CLOUDY    36  32  87 S6        29.69F WCI  31
COLDWATER      CLEAR     34  23  64 S6        29.84S WCI  29
FREMONT        FAIR      35  34  95 S6        29.71F WCI  30
HOLLAND        PTCLDY    35  27  72 S10       29.76F WCI  27
GRAND RAPIDS   MOCLDY    37  28  70 SW12      29.76F WCI  29
IONIA          FAIR      34  27  74 SW10      29.76F WCI  26
KALAMAZOO      CLEAR     33  24  69 S9        29.81F WCI  25
LUDINGTON      PTCLDY    45  35  69 SW17G29   29.63F
MARSHALL       CLEAR     32  23  69 S3        29.82S
MOUNT PLEASANT CLEAR     35  26  71 S5        29.72F WCI  31
MUSKEGON       CLOUDY    46  36  68 S15       29.73F
SOUTH HAVEN    CLEAR     37  26  64 S6        29.78F WCI  33
$$
MIZ016>042-241400-
NORTHERN LOWER MICHIGAN

CITY           SKY/WX    TMP DP  RH WIND       PRES   REMARKS
ALPENA         CLOUDY    37  30  75 S12       29.59F WCI  29
BEAVER ISLAND  PTCLDY    46  38  75 SW18G30   29.48F
BELLAIRE       CLOUDY    43  35  72 S9        29.58F
CADILLAC       CLOUDY    38  32  81 SW16G23   29.62F WCI  29
CHARLEVOIX     CLOUDY    42  33  70 S14G22    29.54F
FRANKFORT      CLOUDY    47  34  60 S15G23    29.58F
GAYLORD        CLOUDY    37  29  72 SW16G24   29.56F WCI  28
GRAYLING       CLEAR     36  29  75 SW9       29.61F WCI  29
HARBOR SPRINGS CLOUDY    42  32  68 SW9G18    29.53F
HOUGHTON LAKE  CLOUDY    35  30  82 SW13      29.66F WCI  26
MANISTEE       LGT RAIN  42  34  73 VRB5      29.62F
OSCODA         PTCLDY    34  27  75 SW15G21   29.67F WCI  24
PELLSTON       CLOUDY    44  32  62 SW17G29   29.50F
ROGERS CITY    CLOUDY    38  30  73 SW6       29.57S WCI  34
TRAVERSE CITY  MOCLDY    43  31  62 SW12G21   29.56F
$$
MIZ007>008-015-241400-
EASTERN UPPER MICHIGAN

CITY           SKY/WX    TMP DP  RH WIND       PRES   REMARKS
KINROSS        LGT RAIN  40  34  79 SW16G29   29.46F WCI  31
MACKINAC ISLAN LGT RAIN  43  32  65 S10G20    29.50F
NEWBERRY       CLOUDY    42  39  88 S23G35    29.41F
S. S. MARIE    LGT RAIN  37  33  85 VRB5      29.47F WCI  33
MUNISING         N/A     42  31  64 S16G28    29.34F
$$
MIZ004>006-011>014-085-241400-
CENTRAL UPPER MICHIGAN

CITY           SKY/WX    TMP DP  RH WIND       PRES   REMARKS
MANISTIQUE     CLOUDY    42  34  73 SW16G28   29.45F
ESCANABA       CLOUDY    40  29  64 SW14      29.45F WCI  32
MENOMINEE      CLOUDY    43  30  60 SW10      29.49F
SAWYER-GWINN   CLEAR     36  28  75 S15       29.36F WCI  26
$$
MIZ001>003-009>011-084-241400-
WESTERN UPPER MICHIGAN

CITY           SKY/WX    TMP DP  RH WIND       PRES   REMARKS
IRON MOUNTAIN  CLOUDY    38  27  64 SE5       29.40F WCI  34
HOUGHTON       CLOUDY    44  32  62 SW6       29.24F
COPPER HARBOR    N/A     44  31  60 W10G21    29.20F
IRONWOOD       PTCLDY    43  33  68 SW18G28   29.29F
$$

ABBREVIATIONS USED IN REMARKS
   TC - TEMPERATURE IN CELSIUS
  WCI - WIND CHILL INDEX
   HX - HEAT INDEX
  VSB - VISIBILITY





USA.gov is the U.S. government's official web portal to all federal, state and local government web resources and services.